TimeCDT,TemperatureF,Dew PointF,Humidity,Sea Level PressureIn,VisibilityMPH,Wind Direction,Wind SpeedMPH,Gust SpeedMPH,PrecipitationIn,Events,Conditions,WindDirDegrees,DateUTC
12:14 AM,39.2,35.6,87,29.54,7.0,WSW,9.2,-,N/A,,Light Drizzle,240,2012-10-09 05:14:00
12:33 AM,39.2,35.6,87,29.53,10.0,SW,10.4,16.1,N/A,,Light Drizzle,230,2012-10-09 05:33:00
12:54 AM,39.2,35.6,87,29.54,10.0,WSW,10.4,-,0.01,,Overcast,240,2012-10-09 05:54:00
1:14 AM,39.2,35.6,87,29.55,10.0,West,6.9,16.1,N/A,,Overcast,260,2012-10-09 06:14:00
1:53 AM,37.4,33.8,87,29.56,10.0,West,10.4,17.3,N/A,,Overcast,260,2012-10-09 06:53:00
2:14 AM,37.4,33.8,87,29.57,10.0,West,9.2,-,N/A,,Overcast,260,2012-10-09 07:14:00
2:53 AM,37.4,33.8,87,29.56,10.0,West,9.2,-,N/A,,Overcast,260,2012-10-09 07:53:00
3:14 AM,37.4,33.8,87,29.57,10.0,WSW,5.8,-,N/A,,Overcast,250,2012-10-09 08:14:00
3:34 AM,37.4,33.8,87,29.56,10.0,SW,5.8,-,N/A,,Overcast,230,2012-10-09 08:34:00
3:54 AM,37.4,33.8,87,29.57,10.0,SSW,6.9,-,N/A,,Overcast,210,2012-10-09 08:54:00
4:13 AM,37.4,33.8,87,29.57,10.0,SW,5.8,-,N/A,,Overcast,220,2012-10-09 09:13:00
4:34 AM,37.4,33.8,87,29.57,10.0,SW,5.8,-,N/A,,Overcast,230,2012-10-09 09:34:00
4:53 AM,37.4,33.8,87,29.57,5.0,SSW,5.8,-,N/A,,Drizzle,200,2012-10-09 09:53:00
5:14 AM,37.4,33.8,87,29.58,10.0,South,8.1,-,N/A,,Overcast,190,2012-10-09 10:14:00
5:34 AM,37.4,33.8,87,29.58,10.0,SSW,6.9,-,N/A,,Overcast,210,2012-10-09 10:34:00
5:53 AM,37.4,35.6,93,29.58,10.0,SSW,4.6,-,N/A,,Overcast,210,2012-10-09 10:53:00
6:14 AM,37.4,35.6,93,29.58,10.0,SSW,4.6,-,N/A,,Overcast,200,2012-10-09 11:14:00
6:34 AM,37.4,33.8,87,29.58,10.0,SSW,4.6,-,N/A,,Mostly Cloudy,200,2012-10-09 11:34:00
6:53 AM,37.4,33.8,87,29.59,10.0,SSW,6.9,-,N/A,,Mostly Cloudy,200,2012-10-09 11:53:00
7:14 AM,37.4,33.8,87,29.59,10.0,SSW,5.8,-,N/A,,Overcast,200,2012-10-09 12:14:00
7:34 AM,37.4,33.8,87,29.60,10.0,SSW,6.9,-,N/A,,Overcast,200,2012-10-09 12:34:00
7:53 AM,37.4,33.8,87,29.59,10.0,SSW,5.8,-,N/A,,Overcast,200,2012-10-09 12:53:00
8:14 AM,37.4,33.8,87,29.60,10.0,SSW,4.6,-,N/A,,Mostly Cloudy,200,2012-10-09 13:14:00
8:34 AM,37.4,33.8,87,29.59,10.0,SSW,5.8,-,N/A,,Scattered Clouds,210,2012-10-09 13:34:00
8:53 AM,39.2,33.8,81,29.59,10.0,SSW,6.9,-,N/A,,Mostly Cloudy,200,2012-10-09 13:53:00
9:14 AM,39.2,33.8,81,29.59,10.0,SW,6.9,-,N/A,,Overcast,220,2012-10-09 14:14:00
9:34 AM,39.2,33.8,81,29.59,10.0,SW,8.1,-,N/A,,Overcast,220,2012-10-09 14:34:00
9:54 AM,39.2,33.8,81,29.59,10.0,SW,5.8,-,N/A,,Overcast,220,2012-10-09 14:54:00
10:13 AM,39.2,33.8,81,29.59,10.0,SSW,8.1,-,N/A,,Light Drizzle,210,2012-10-09 15:13:00
10:34 AM,39.2,33.8,81,29.59,10.0,SW,5.8,-,N/A,,Light Drizzle,220,2012-10-09 15:34:00
10:54 AM,39.2,33.8,81,29.59,10.0,SW,6.9,16.1,N/A,,Light Drizzle,230,2012-10-09 15:54:00
11:13 AM,42.8,33.8,70,29.58,10.0,SW,8.1,-,N/A,,Mostly Cloudy,230,2012-10-09 16:13:00
11:34 AM,39.2,30.2,70,29.58,10.0,WSW,9.2,16.1,N/A,,Scattered Clouds,250,2012-10-09 16:34:00
11:54 AM,44.6,30.2,57,29.57,10.0,SW,15.0,23.0,N/A,,Scattered Clouds,220,2012-10-09 16:54:00
12:13 PM,44.6,28.4,53,29.57,10.0,SSW,9.2,18.4,N/A,,Scattered Clouds,210,2012-10-09 17:13:00
12:33 PM,44.6,28.4,53,29.57,10.0,WSW,12.7,24.2,N/A,,Clear,240,2012-10-09 17:33:00
12:54 PM,42.8,26.6,53,29.57,10.0,SW,9.2,18.4,N/A,,Clear,230,2012-10-09 17:54:00
1:14 PM,44.6,28.4,53,29.57,10.0,SW,8.1,17.3,N/A,,Clear,220,2012-10-09 18:14:00
1:34 PM,44.6,30.2,57,29.57,10.0,West,12.7,18.4,N/A,,Mostly Cloudy,280,2012-10-09 18:34:00
1:53 PM,42.8,26.6,53,29.57,10.0,West,15.0,26.5,N/A,,Scattered Clouds,270,2012-10-09 18:53:00
2:10 PM,42.8,28.4,57,29.57,10.0,West,13.8,21.9,N/A,,Scattered Clouds,260,2012-10-09 19:10:00
2:33 PM,44.6,26.6,49,29.57,10.0,WSW,10.4,21.9,N/A,,Mostly Cloudy,250,2012-10-09 19:33:00
2:54 PM,42.8,26.6,53,29.58,10.0,WSW,10.4,17.3,N/A,,Mostly Cloudy,250,2012-10-09 19:54:00
3:14 PM,42.8,26.6,53,29.58,10.0,WSW,8.1,20.7,N/A,,Mostly Cloudy,240,2012-10-09 20:14:00
3:33 PM,42.8,26.6,53,29.58,10.0,WSW,10.4,21.9,N/A,,Mostly Cloudy,250,2012-10-09 20:33:00
3:54 PM,39.2,28.4,65,29.60,10.0,West,12.7,24.2,N/A,,Drizzle,280,2012-10-09 20:54:00
4:14 PM,37.4,30.2,75,29.60,10.0,West,6.9,-,N/A,,Overcast,260,2012-10-09 21:14:00
4:33 PM,39.2,28.4,65,29.59,10.0,West,9.2,21.9,N/A,,Mostly Cloudy,270,2012-10-09 21:33:00
4:54 PM,37.4,28.4,70,29.60,10.0,West,12.7,20.7,N/A,,Mostly Cloudy,270,2012-10-09 21:54:00
5:14 PM,37.4,30.2,75,29.61,10.0,West,12.7,18.4,N/A,,Mostly Cloudy,270,2012-10-09 22:14:00
5:33 PM,35.6,28.4,75,29.61,10.0,West,12.7,19.6,N/A,,Clear,280,2012-10-09 22:33:00
5:54 PM,35.6,28.4,75,29.62,10.0,West,6.9,-,N/A,,Clear,280,2012-10-09 22:54:00
6:13 PM,35.6,28.4,75,29.63,10.0,WNW,9.2,18.4,N/A,,Mostly Cloudy,290,2012-10-09 23:13:00
6:34 PM,33.8,28.4,81,29.64,10.0,WNW,9.2,-,N/A,Snow,Light Snow,290,2012-10-09 23:34:00
6:54 PM,33.8,26.6,75,29.65,7.0,WNW,10.4,23.0,N/A,Snow,Light Snow,290,2012-10-09 23:54:00
7:14 PM,32.0,26.6,80,29.65,10.0,WNW,8.1,18.4,N/A,,Clear,300,2012-10-10 00:14:00
7:34 PM,32.0,28.4,87,29.66,2.5,WNW,8.1,16.1,N/A,Snow,Light Snow,300,2012-10-10 00:34:00
7:54 PM,32.0,26.6,80,29.66,10.0,WNW,11.5,24.2,N/A,,Scattered Clouds,290,2012-10-10 00:54:00
8:14 PM,32.0,26.6,80,29.67,10.0,WNW,10.4,23.0,N/A,,Clear,300,2012-10-10 01:14:00
8:33 PM,30.2,26.6,86,29.68,1.8,WNW,8.1,18.4,N/A,Snow,Light Snow,300,2012-10-10 01:33:00
8:54 PM,30.2,24.8,80,29.69,10.0,WNW,10.4,21.9,N/A,,Scattered Clouds,300,2012-10-10 01:54:00
9:14 PM,30.2,24.8,80,29.70,10.0,WNW,10.4,20.7,N/A,,Clear,300,2012-10-10 02:14:00
9:33 PM,30.2,24.8,80,29.69,10.0,WNW,9.2,21.9,N/A,,Scattered Clouds,300,2012-10-10 02:33:00
9:54 PM,30.2,24.8,80,29.70,4.0,WNW,11.5,18.4,N/A,Snow,Light Snow,300,2012-10-10 02:54:00
10:14 PM,28.4,23.0,80,29.70,10.0,NW,13.8,23.0,N/A,,Scattered Clouds,320,2012-10-10 03:14:00
10:34 PM,30.2,23.0,75,29.71,10.0,NW,12.7,23.0,N/A,,Scattered Clouds,310,2012-10-10 03:34:00
10:54 PM,28.4,23.0,80,29.71,10.0,NW,16.1,24.2,N/A,,Scattered Clouds,310,2012-10-10 03:54:00
11:14 PM,28.4,23.0,80,29.72,10.0,NW,9.2,17.3,N/A,,Clear,310,2012-10-10 04:14:00
11:34 PM,28.4,24.8,86,29.73,7.0,North,-9999.0,-,N/A,,Scattered Clouds,0,2012-10-10 04:34:00
11:54 PM,28.4,24.8,86,29.73,2.5,WNW,9.2,-,N/A,Snow,Light Snow,300,2012-10-10 04:54:00